OPS 4682 DEB, 11631

Orbit data source: Space-Track

OPS 4682 DEB, 11631 is space debris in LEO originally from a launch on Sat, 03 Apr 1965 UTC launched from the Air Force Western Test Range (AFWTR). Debris objects in space refer to the collection of defunct objects orbiting the Earth. Examples of debris include non-operational satellites, rocket bodies, and fragments generated from explosions, collisions, or faulty payload assembly.

Loading next visibility...
Identifier
11631, 1965-027F
Orbit
LEO
Country
Flag of USUS
Related business
Manufacturer
Unknown
Mission
Spacecraft
Bus & Motor
Unknown
Mass
Unknown
Launch date (UTC)
1965-04-03 (61 years ago)
Launch vehicle
Unknown
Launch site
Air Force Western Test Range (AFWTR)
Object type
Payload
Rocket body
Debris
Shape & HBR
Unknown shape, 0.1 m
Radar Cross Section
Medium (>0.1 m² and <1 m²)

Expand to show TLE details & history
Last TLE update: 21 hours ago

TLE from 21 hours ago
0 OPS 4682 DEB
1 11631U 65027F   26174.77260157  .00000218  00000-0  72786-3 0  9991
2 11631  90.2380   6.1299 0043389  59.0864 319.1586 12.96765570126631
Epoch: 2026-06-23T18:32Z
TLE epoch observation values (Epoch: 2026-06-23T18:32:32.775Z)
Latitude
17.90852°
Longitude
175.97745°
Altitude
1,252.052 km
Speed
7.242 km/s
True Right ascension
00h 24m 12s
True Declination
17° 48' 53"
Sunlit
Object was in daylight at epoch
Visualization orbit readout
Latitude
Unknown
Longitude
Unknown
Altitude
Unknown
Speed
Unknown
Apparent Right ascension
Unknown
Apparent Declination
Unknown
Sunlit
N/A
Visualization observer readout
Local Sidereal Time
03:11:45
Azimuth
Unknown
Elevation
Unknown
Doppler factor
Unknown
Orbital elements
Apogee altitude
1,305.11 km
Perigee altitude
1,238.725 km
Semi-major axis
7,650.054 km
Eccentricity
0.00434
Inclination
90.238°
RAAN
6.1299°
Arg. of periapsis
59.0864°
True anomaly
318.83211°
Mean anomaly
319.1586°
Eccentric anomaly
318.99549°
Mean motion
3.24374 °/min
Orbital period
110.98 mins
BSTAR
0.00072786
Loading maneuver chart data...
Computing Atmospheric mass density...
Loading historical data...
Loading historical data...
Loading historical data...
Loading historical data...
Loading historical data...
Loading historical data...
Loading historical data...

Documentation

Showing up to 5 results
|